Miscellaneous Local Product
Issued by NWS North Platte, NE

Home | Current Version | Previous Version | Text Only | Print | Product List | Glossary On
Versions: 1 2 3 4 5 6 7 8 9 10 11 12 13 14 15 16 17 18 19 20 21 22 23 24 25 26 27 28 29 30 31 32 33 34 35 36 37 38 39 40 41 42 43 44 45 46 47 48 49 50
000
AXUS43 KLBF 241110
MISLBF


WESTERN AND NORTH CENTRAL NEBRASKA HOURLY WEATHER ROUNDUP
NATIONAL WEATHER SERVICE NORTH PLATTE NE
600 AM CDT THU APR 24 2014

***STATIONS NOT REPORTING VARIABLES SUCH AS SKY/WEATHER OR
PRESSURE ARE PROVIDED BY THE NEBRASKA DEPARTMENT OF
ROADS...RAWS...AND APRS NETWORKS...AND ARE NOT UNDER
NATIONAL WEATHER SERVICE QUALITY CONTROL***

...OBSERVATIONS IN AND NEAR THE EASTERN PANHANDLE OF NEBRASKA...

CITY           SKY/WX    TMP DP  RH WIND       PRES   REMARKS
PINE RIDGE     CLEAR     36  31  82 W6        29.88R WCI  31
CHADRON        CLEAR     37  30  75 W6        29.90R WCI  32
ALLIANCE       CLEAR     32  28  85 W10       29.90R WCI  24
SIDNEY         PTCLDY    35  29  78 W8        29.93S WCI  29
WHITECLAY        N/A     34  27  75 SE3         N/A
CRESCENT LAKE    N/A     36  33  88 W6          N/A  WCI  31
LISCO            N/A     38  30  73 W12         N/A  WCI  30
BIG SPRINGS      N/A     43  37  79 W6          N/A
LEWELLEN         N/A     40  34  80 NW9         N/A  WCI  34
$$

...OBSERVATIONS IN SOUTHWEST NEBRASKA AND FAR NORTHEAST COLORADO...

CITY           SKY/WX    TMP DP  RH WIND       PRES   REMARKS
WRAY           CLOUDY    47  36  65 NW12      29.91R
HOLYOKE        FAIR      46  34  61 NW13      29.90R
IMPERIAL       CLOUDY    47  36  65 NW14      29.87R
OGALLALA       CLOUDY    44  34  68 NW7       29.88R
NORTH PLATTE   CLOUDY    47  34  60 NW10      29.83R
MCCOOK         CLOUDY    53  35  50 N13       29.81S
LEXINGTON      CLOUDY    52  38  60 NW12      29.79R
PAXTON           N/A     49  37  63 NW6         N/A
SUTHERLAND       N/A     42  34  72 W10         N/A
GOTHENBURG       N/A     51  38  61 NW3         N/A
CALLAWAY         N/A     50  38  62 NW12        N/A
$$

...OBSERVATIONS IN NORTH CENTRAL NEBRASKA...

CITY           SKY/WX    TMP DP  RH WIND       PRES   REMARKS
VALENTINE      CLEAR     43  33  68 NW13      29.81R
THEDFORD       MOCLDY    47  34  59 NW9       29.82R
AINSWORTH      MOCLDY    47  35  63 NW10      29.78R
O`NEILL        CLOUDY    52  34  51 NW14      29.72R
ORD            CLOUDY    50  41  71 NW10      29.72R
BROKEN BOW     CLOUDY    50  34  54 NW13      29.76R
BROWNLEE         N/A     47  36  63 W10         N/A
SPRINGVIEW       N/A     49  35  59 W3G15       N/A
DUNNING          N/A     48  35  60 W12         N/A
BREWSTER         N/A     48  34  58 NW12        N/A
ROSE             N/A     49  37  61 W10         N/A
NEWPORT          N/A     50  36  58 NW14        N/A
COMSTOCK         N/A     53  38  55 NW10        N/A
CHAMBERS         N/A     50  36  58 N8          N/A
EWING            N/A     51  40  67 N8          N/A
$$

...SOME WEATHER OBSERVATIONS FROM AROUND THE REGION...

CITY           SKY/WX    TMP DP  RH WIND       PRES   REMARKS
DENVER         PTCLDY    35  21  56 N9        29.99S WCI  28
LARAMIE        CLEAR     22  11  62 W12       30.00R WCI  10
CHEYENNE       CLEAR     32  14  47 NW5       29.98R WCI  27
SCOTTSBLUFF    CLEAR     36  28  73 W10       29.94R WCI  28
RAPID CITY     CLEAR     34  20  56 NW9       29.85S WCI  27
PIERRE         CLOUDY    45  34  65 NW14      29.74S
WINNER         FAIR      44  34  67 NW12      29.76R
SIOUX FALLS    LGT RAIN  46  45  96 N5        29.65F FOG
OMAHA          CLOUDY    49  45  86 N6        29.62F
GRAND ISLAND   LGT RAIN  51  44  77 NW14      29.72R
KANSAS CITY    CLOUDY    64  49  57 SE13      29.64F
WICHITA        TSTM      65  59  81 NW15      29.63R
HAYS           PTCLDY    52  45  76 N10       29.73S
LIBERAL        MOCLDY    54  30  40 N31G40    29.85R
GOODLAND       CLOUDY    49  32  52 N16       29.86R
$$



USA.gov is the U.S. government's official web portal to all federal, state and local government web resources and services.